W8KHW Weather Reports


time (UTC)temp
C
wind
direction
speed
KPH
gust
KPH
rain 1hr
cm
rain 24hr
cm
rain mn
cm
humidity
%
barometer
mb
20260508154502 15 251 4.8 11.3 0.00 0.00 0.00 56 1014.4
20260508153642 15 245 3.2 11.3 0.00 0.00 0.00 56 1014.4
20260508152821 15 252 3.2 11.3 0.00 0.00 0.00 54 1014.3
20260508152001 14 256 4.8 20.9 0.00 0.00 0.00 56 1014.3
20260508151141 14 232 4.8 17.7 0.00 0.00 0.00 59 1014.6
20260508150321 13 224 3.2 17.7 0.00 0.00 0.00 62 1014.7
20260508145501 13 224 3.2 12.9 0.00 0.00 0.00 60 1014.8
20260508144641 13 211 3.2 9.7 0.00 0.00 0.00 66 1014.8
20260508143820 12 220 1.6 8.0 0.00 0.00 0.00 62 1014.8
20260508143000 12 210 1.6 9.7 0.00 0.00 0.00 65 1014.8
20260508142140 12 234 3.2 16.1 0.00 0.00 0.00 63 1014.6
20260508141320 12 210 1.6 16.1 0.00 0.00 0.00 62 1014.8
20260508140500 12 235 1.6 11.3 0.00 0.00 0.00 61 1014.8
20260508135640 12 248 3.2 11.3 0.00 0.00 0.00 60 1014.6
20260508134819 12 209 1.6 11.3 0.00 0.00 0.00 63 1014.5
20260508133959 12 218 3.2 20.9 0.00 0.00 0.00 63 1014.9
20260508133139 12 234 3.2 12.9 0.00 0.00 0.00 63 1014.7
20260508132319 12 242 3.2 14.5 0.00 0.00 0.00 61 1014.7
20260508131458 12 242 4.8 17.7 0.00 0.00 0.00 61 1014.6
20260508130638 12 234 3.2 11.3 0.00 0.00 0.00 62 1014.7
20260508125818 12 225 4.8 17.7 0.00 0.00 0.00 61 1014.7
20260508124958 11 230 3.2 16.1 0.00 0.00 0.00 63 1014.6
20260508124137 11 242 3.2 11.3 0.00 0.00 0.00 63 1014.5
20260508123317 11 166 3.2 12.9 0.00 0.00 0.00 67 1014.5
20260508122457 10 204 3.2 9.7 0.00 0.00 0.00 66 1014.7
20260508121637 10 211 1.6 8.0 0.00 0.00 0.00 68 1014.7
20260508120816 10 141 1.6 9.7 0.00 0.00 0.00 69 1014.5
20260508115956 10 192 3.2 14.5 0.00 0.00 0.00 71 1014.5
20260508115136 10 179 3.2 14.5 0.00 0.00 0.00 70 1014.7
20260508114316 10 121 3.2 9.7 0.00 0.00 0.00 72 1014.3
20260508113456 8 118 1.6 6.4 0.00 0.00 0.00 76 1014.4
20260508112635 7 110 3.2 6.4 0.00 0.00 0.00 78 1014.1
20260508111815 7 111 3.2 8.0 0.00 0.00 0.00 83 1014.2
20260508110955 6 110 3.2 6.4 0.00 0.00 0.00 83 1014.4
20260508110135 6 104 1.6 6.4 0.00 0.00 0.00 84 1014.5
20260508105314 6 94 1.6 6.4 0.00 0.00 0.00 85 1014.4
20260508104454 5 91 1.6 4.8 0.00 0.00 0.00 86 1014.0
20260508103634 5 102 3.2 6.4 0.00 0.00 0.00 87 1014.1
20260508102814 5 93 1.6 6.4 0.00 0.00 0.00 88 1013.9
20260508101954 5 91 3.2 6.4 0.00 0.00 0.00 89 1013.9
20260508101133 5 97 3.2 6.4 0.00 0.00 0.00 89 1013.8
20260508100313 5 95 3.2 6.4 0.00 0.00 0.00 89 1013.8
20260508095453 5 104 3.2 8.0 0.00 0.00 0.00 89 1013.8
20260508094633 5 110 3.2 6.4 0.00 0.00 0.00 89 1014.0
20260508093813 5 108 3.2 6.4 0.00 0.00 0.00 89 1013.9
20260508092953 5 105 3.2 8.0 0.00 0.00 0.00 89 1013.8
20260508092133 5 94 3.2 6.4 0.00 0.00 0.00 89 1014.0
20260508091312 5 97 3.2 4.8 0.00 0.00 0.00 89 1014.1
20260508090452 5 103 3.2 4.8 0.00 0.00 0.00 89 1013.9
20260508085632 5 99 3.2 6.4 0.00 0.00 0.00 88 1014.2
20260508084812 5 100 3.2 6.4 0.00 0.00 0.00 88 1014.1
20260508083952 5 94 3.2 6.4 0.00 0.00 0.00 88 1014.3
20260508083132 5 111 3.2 6.4 0.00 0.00 0.00 87 1013.9
20260508082312 5 109 3.2 4.8 0.00 0.00 0.00 87 1014.1
20260508081451 6 97 3.2 4.8 0.00 0.00 0.00 86 1013.9
20260508080631 6 67 3.2 6.4 0.00 0.00 0.00 85 1014.0
20260508075811 6 105 3.2 6.4 0.00 0.00 0.00 85 1014.1
20260508074951 6 106 3.2 6.4 0.00 0.00 0.00 83 1014.1
20260508074130 6 96 3.2 6.4 0.00 0.00 0.00 82 1014.2
20260508073310 7 84 1.6 6.4 0.00 0.00 0.00 81 1014.3
20260508072450 7 108 3.2 4.8 0.00 0.00 0.00 79 1014.3
20260508071630 7 108 3.2 4.8 0.00 0.00 0.00 78 1014.4
20260508070810 8 105 1.6 4.8 0.00 0.00 0.00 77 1014.6
20260508065950 8 91 1.6 4.8 0.00 0.00 0.00 76 1014.4
20260508065130 9 116 3.2 11.3 0.00 0.00 0.00 77 1014.6
20260508064309 9 105 1.6 6.4 0.00 0.00 0.00 75 1014.7
20260508063449 9 88 1.6 6.4 0.00 0.00 0.00 72 1014.7
20260508062629 9 75 1.6 6.4 0.00 0.00 0.00 70 1014.6
20260508061808 10 83 1.6 6.4 0.00 0.00 0.00 70 1014.9
20260508060948 10 71 1.6 3.2 0.00 0.00 0.00 69 1014.9
20260508060128 10 91 1.6 4.8 0.00 0.00 0.00 67 1014.6
20260508055308 9 69 1.6 4.8 0.00 0.00 0.00 69 1014.6
20260508054448 9 97 1.6 6.4 0.00 0.00 0.00 69 1014.4
20260508053627 9 108 1.6 6.4 0.00 0.00 0.00 71 1014.3
20260508052807 8 107 1.6 6.4 0.00 0.00 0.00 71 1014.5
20260508051947 8 100 1.6 4.8 0.00 0.00 0.00 75 1014.4
20260508051127 8 104 1.6 4.8 0.00 0.00 0.00 76 1014.4
20260508050307 7 109 1.6 4.8 0.00 0.00 0.00 78 1014.4
20260508045446 8 104 1.6 3.2 0.00 0.00 0.00 80 1014.7
20260508044626 8 106 1.6 3.2 0.00 0.00 0.00 80 1014.7
20260508043806 7 103 1.6 3.2 0.00 0.00 0.00 81 1014.6
20260508042946 7 87 1.6 3.2 0.00 0.00 0.00 81 1014.4
20260508042126 7 103 3.2 6.4 0.00 0.00 0.00 81 1014.4
20260508041305 7 103 3.2 3.2 0.00 0.00 0.00 82 1014.7
20260508040445 7 89 1.6 3.2 0.00 0.00 0.00 82 1014.7
20260508035625 7 89 1.6 3.2 0.00 0.00 0.00 82 1014.5
20260508034805 7 98 3.2 3.2 0.00 0.00 0.00 81 1014.6
20260508033945 7 103 1.6 4.8 0.00 0.00 0.00 79 1014.7
20260508033124 7 93 1.6 3.2 0.00 0.00 0.00 80 1014.7
20260508032306 7 94 1.6 3.2 0.00 0.00 0.00 79 1014.6
20260508031444 7 95 1.6 3.2 0.00 0.00 0.00 79 1014.5
20260508030624 7 103 1.6 4.8 0.00 0.00 0.00 79 1014.6
20260508025804 7 100 1.6 3.2 0.00 0.00 0.00 79 1014.5
20260508024943 6 103 3.2 3.2 0.00 0.00 0.00 78 1014.7
20260508024123 7 100 3.2 4.8 0.00 0.00 0.00 78 1014.4
20260508023303 7 98 1.6 3.2 0.00 0.00 0.00 76 1014.6
20260508022443 7 97 1.6 3.2 0.00 0.00 0.00 76 1014.6
20260508021623 7 102 3.2 4.8 0.00 0.00 0.00 73 1014.3
20260508020803 7 91 1.6 4.8 0.00 0.00 0.00 73 1014.5
20260508015942 7 101 1.6 3.2 0.00 0.00 0.00 73 1014.7
20260508015122 7 104 1.6 3.2 0.00 0.00 0.00 71 1014.6
20260508014302 8 101 1.6 3.2 0.00 0.00 0.00 69 1014.6
20260508013441 8 103 1.6 3.2 0.00 0.00 0.00 68 1014.6
20260508012621 8 102 1.6 3.2 0.00 0.00 0.00 66 1014.3
20260508011801 8 108 1.6 3.2 0.00 0.00 0.00 65 1014.3
20260508010941 9 96 1.6 3.2 0.00 0.00 0.00 63 1014.3
20260508010121 9 107 1.6 3.2 0.00 0.00 0.00 60 1014.4
20260508005300 10 105 1.6 3.2 0.00 0.00 0.00 58 1014.3
20260508004440 10 117 1.6 3.2 0.00 0.00 0.00 58 1014.3
20260508003620 11 101 1.6 3.2 0.00 0.00 0.00 54 1014.3
20260508002800 11 110 1.6 3.2 0.00 0.00 0.00 54 1014.3
20260508001940 12 142 0.0 4.8 0.00 0.00 0.00 53 1014.3
20260508001120 12 99 0.0 4.8 0.00 0.00 0.00 49 1013.8
20260508000300 12 238 1.6 6.4 0.00 0.00 0.00 47 1013.8
20260507235440 13 250 3.2 6.4 0.00 0.00 0.00 45 1013.7
20260507234619 13 244 3.2 17.7 0.00 0.00 0.00 45 1013.9
20260507233759 14 292 1.6 11.3 0.00 0.00 0.00 44 1013.6
20260507232939 15 16 3.2 14.5 0.00 0.00 0.00 42 1013.7
20260507232119 15 261 3.2 11.3 0.00 0.00 0.00 41 1013.8
20260507231259 14 282 3.2 16.1 0.00 0.00 0.00 41 1013.6
20260507230438 14 354 1.6 11.3 0.00 0.00 0.00 44 1013.8
20260507225618 14 257 3.2 12.9 0.00 0.00 0.00 45 1013.7
20260507224758 13 215 3.2 16.1 0.00 0.00 0.00 42 1013.9
20260507223938 14 244 3.2 11.3 0.00 0.00 0.00 41 1013.8
20260507223118 15 249 3.2 12.9 0.00 0.00 0.00 42 1014.1
20260507222257 15 257 3.2 16.1 0.00 0.00 0.00 41 1013.9
20260507221437 13 254 4.8 20.9 0.00 0.00 0.00 44 1014.2
20260507220617 13 260 6.4 19.3 0.00 0.00 0.00 42 1014.2
20260507215757 15 271 4.8 25.7 0.00 0.00 0.00 41 1013.8
20260507214936 15 303 4.8 27.4 0.00 0.00 0.00 39 1013.9
20260507214116 15 309 6.4 27.4 0.00 0.00 0.00 38 1013.7
20260507213256 14 249 4.8 14.5 0.00 0.00 0.00 41 1013.9
20260507212436 14 239 3.2 11.3 0.00 0.00 0.00 42 1013.5
20260507211615 14 302 4.8 19.3 0.00 0.00 0.00 43 1013.9
20260507210755 15 297 4.8 19.3 0.00 0.00 0.00 41 1013.7
20260507205935 15 354 4.8 24.1 0.00 0.00 0.00 45 1013.8
20260507205115 15 348 4.8 22.5 0.00 0.00 0.00 41 1013.7
20260507204255 14 17 4.8 24.1 0.00 0.00 0.00 45 1013.8
20260507203434 15 16 4.8 24.1 0.00 0.00 0.00 44 1013.5
20260507202614 14 306 6.4 22.5 0.00 0.00 0.00 43 1013.6
20260507201754 14 257 8.0 24.1 0.00 0.00 0.00 45 1013.5
20260507200934 15 256 6.4 17.7 0.00 0.00 0.00 45 1013.8
20260507200113 14 286 8.0 30.6 0.00 0.00 0.00 42 1013.9
20260507195253 15 264 6.4 24.1 0.00 0.00 0.00 43 1013.6
20260507194433 14 255 6.4 20.9 0.00 0.00 0.00 46 1013.7
20260507193613 15 262 8.0 20.9 0.00 0.00 0.00 44 1013.8
20260507192753 15 271 6.4 14.5 0.00 0.00 0.00 41 1013.9
20260507191932 15 293 4.8 16.1 0.00 0.00 0.00 43 1014.0
20260507191112 15 256 6.4 19.3 0.00 0.00 0.00 44 1013.9
20260507190252 15 253 6.4 22.5 0.00 0.00 0.00 45 1014.0
20260507185432 15 262 6.4 20.9 0.00 0.00 0.00 44 1014.0
20260507184612 15 285 6.4 17.7 0.00 0.00 0.00 44 1014.2
20260507183751 15 263 4.8 17.7 0.00 0.00 0.00 44 1013.9
20260507182931 15 262 8.0 22.5 0.00 0.00 0.00 51 1014.2
20260507182111 14 258 9.7 17.7 0.00 0.00 0.00 49 1014.5
20260507181251 14 257 6.4 17.7 0.00 0.00 0.00 49 1014.2
20260507180430 14 268 6.4 25.7 0.00 0.00 0.00 49 1014.3
20260507175610 15 253 4.8 20.9 0.00 0.00 0.00 50 1014.2
20260507174750 14 264 6.4 22.5 0.00 0.00 0.00 49 1014.1
20260507173930 14 260 6.4 19.3 0.00 0.00 0.00 52 1014.3
20260507173109 13 256 6.4 19.3 0.00 0.00 0.00 49 1014.3
20260507172249 13 260 6.4 19.3 0.00 0.00 0.00 50 1014.7
20260507171429 13 259 6.4 12.9 0.00 0.00 0.00 49 1014.6
20260507170609 13 261 6.4 17.7 0.00 0.00 0.00 51 1014.7
20260507165749 14 258 6.4 24.1 0.00 0.00 0.00 47 1014.9
20260507164928 13 262 6.4 25.7 0.00 0.00 0.00 50 1014.9
20260507164108 12 260 8.0 22.5 0.00 0.00 0.00 50 1015.1
20260507163248 13 265 6.4 29.0 0.00 0.00 0.00 52 1015.0
20260507162428 13 254 6.4 27.4 0.00 0.00 0.00 44 1014.9
20260507161608 13 262 6.4 17.7 0.00 0.00 0.00 46 1015.0
20260507160748 12 255 6.4 17.7 0.00 0.00 0.00 50 1014.8
20260507155928 12 248 4.8 17.7 0.00 0.00 0.00 47 1014.7
20260507155107 12 258 6.4 19.3 0.00 0.00 0.00 49 1014.9